| time (UTC) | temp F | wind direction | speed MPH | gust MPH | rain 1hr in | rain 24hr in | rain mn in | humidity % | barometer mb |
| 20260507065509 | 57 | 178 | 1.0 | 5.0 | 0.00 | 0.02 | 0.00 | 95 | 1009.3 |
| 20260507065009 | 57 | 224 | 1.0 | 4.0 | 0.00 | 0.02 | 0.00 | 95 | 1009.4 |
| 20260507064509 | 57 | 143 | 1.0 | 3.0 | 0.00 | 0.02 | 0.00 | 95 | 1009.3 |
| 20260507064008 | 57 | 163 | 0.0 | 3.0 | 0.00 | 0.02 | 0.00 | 94 | 1009.2 |
| 20260507063509 | 57 | 149 | 0.0 | 2.0 | 0.00 | 0.02 | 0.00 | 94 | 1009.3 |
| 20260507063008 | 57 | 207 | 0.0 | 1.0 | 0.00 | 0.02 | 0.00 | 94 | 1009.4 |
| 20260507062507 | 57 | 196 | 0.0 | 4.0 | 0.00 | 0.02 | 0.00 | 95 | 1009.5 |
| 20260507062007 | 57 | 204 | 2.0 | 6.0 | 0.00 | 0.02 | 0.00 | 95 | 1009.6 |
| 20260507061507 | 57 | 174 | 2.0 | 6.0 | 0.00 | 0.02 | 0.00 | 95 | 1009.4 |
| 20260507061006 | 57 | 162 | 1.0 | 6.0 | 0.00 | 0.02 | 0.00 | 95 | 1009.5 |
| 20260507060506 | 57 | 158 | 2.0 | 6.0 | 0.00 | 0.02 | 0.00 | 95 | 1009.7 |
| 20260507060005 | 57 | 110 | 2.0 | 4.0 | 0.00 | 0.02 | 0.00 | 95 | 1009.8 |
| 20260507055504 | 57 | 158 | 1.0 | 4.0 | 0.00 | 0.02 | 0.00 | 95 | 1009.9 |
| 20260507055005 | 57 | 143 | 1.0 | 3.0 | 0.00 | 0.02 | 0.00 | 95 | 1009.9 |
| 20260507054511 | 57 | 174 | 2.0 | 4.0 | 0.00 | 0.02 | 0.00 | 94 | 1010.0 |
| 20260507054003 | 57 | 181 | 1.0 | 4.0 | 0.00 | 0.02 | 0.00 | 94 | 1010.2 |
| 20260507053503 | 57 | 165 | 1.0 | 3.0 | 0.00 | 0.02 | 0.00 | 94 | 1010.0 |
| 20260507053001 | 57 | 148 | 1.0 | 3.0 | 0.00 | 0.02 | 0.00 | 94 | 1010.2 |
| 20260507052502 | 57 | 148 | 1.0 | 3.0 | 0.00 | 0.02 | 0.00 | 94 | 1010.5 |
| 20260507052002 | 57 | 203 | 0.0 | 2.0 | 0.00 | 0.02 | 0.00 | 94 | 1010.5 |
| 20260507051501 | 57 | 203 | 0.0 | 3.0 | 0.00 | 0.02 | 0.00 | 94 | 1010.4 |
| 20260507051101 | 57 | 171 | 1.0 | 3.0 | 0.00 | 0.02 | 0.00 | 94 | 1010.4 |
| 20260507050600 | 57 | 107 | 0.0 | 2.0 | 0.00 | 0.02 | 0.00 | 94 | 1010.3 |
| 20260507050100 | 57 | 107 | 0.0 | 2.0 | 0.00 | 0.02 | 0.00 | 94 | 1010.3 |
| 20260507045559 | 57 | 169 | 1.0 | 2.0 | 0.00 | 0.02 | 0.00 | 93 | 1010.3 |
| 20260507045057 | 57 | 146 | 1.0 | 2.0 | 0.00 | 0.02 | 0.00 | 93 | 1010.9 |
| 20260507044558 | 58 | 269 | 0.0 | 2.0 | 0.00 | 0.02 | 0.00 | 93 | 1011.4 |
| 20260507044057 | 58 | 221 | 0.0 | 3.0 | 0.00 | 0.02 | 0.00 | 93 | 1011.6 |
| 20260507043556 | 58 | 221 | 0.0 | 3.0 | 0.00 | 0.02 | 0.00 | 93 | 1011.4 |
| 20260507043056 | 58 | 238 | 0.0 | 3.0 | 0.00 | 0.02 | 0.00 | 93 | 1011.2 |
| 20260507042556 | 58 | 214 | 0.0 | 6.0 | 0.00 | 0.02 | 0.00 | 93 | 1011.4 |
| 20260507042054 | 57 | 201 | 1.0 | 6.0 | 0.00 | 0.02 | 0.00 | 94 | 1011.8 |
| 20260507041554 | 57 | 248 | 2.0 | 5.0 | 0.00 | 0.02 | 0.00 | 94 | 1011.6 |
| 20260507041052 | 57 | 144 | 0.0 | 2.0 | 0.00 | 0.02 | 0.00 | 94 | 1011.3 |
| 20260507040551 | 57 | 232 | 0.0 | 1.0 | 0.00 | 0.02 | 0.00 | 94 | 1011.3 |
| 20260507040054 | 57 | 232 | 0.0 | 1.0 | 0.00 | 0.02 | 0.00 | 94 | 1011.3 |
| 20260507035549 | 57 | 134 | 0.0 | 1.0 | 0.00 | 0.02 | 0.02 | 94 | 1011.3 |
| 20260507035150 | 57 | 134 | 0.0 | 1.0 | 0.00 | 0.02 | 0.02 | 94 | 1011.3 |
| 20260507034554 | 57 | 134 | 0.0 | 3.0 | 0.00 | 0.02 | 0.02 | 94 | 1011.1 |
| 20260507034048 | 57 | 134 | 0.0 | 3.0 | 0.00 | 0.02 | 0.02 | 94 | 1010.8 |
| 20260507033548 | 57 | 158 | 1.0 | 3.0 | 0.00 | 0.02 | 0.02 | 94 | 1011.1 |
| 20260507033052 | 57 | 189 | 0.0 | 2.0 | 0.00 | 0.02 | 0.02 | 93 | 1011.0 |
| 20260507032549 | 58 | 203 | 0.0 | 2.0 | 0.01 | 0.02 | 0.02 | 93 | 1010.9 |
| 20260507032047 | 58 | 208 | 0.0 | 2.0 | 0.01 | 0.02 | 0.02 | 93 | 1010.6 |
| 20260507031548 | 58 | 237 | 0.0 | 2.0 | 0.01 | 0.02 | 0.02 | 93 | 1010.3 |
| 20260507031048 | 58 | 237 | 0.0 | 2.0 | 0.01 | 0.02 | 0.02 | 93 | 1010.3 |
| 20260507030546 | 58 | 237 | 0.0 | 1.0 | 0.01 | 0.02 | 0.02 | 92 | 1010.2 |
| 20260507030047 | 58 | 236 | 0.0 | 1.0 | 0.02 | 0.02 | 0.02 | 92 | 1010.2 |
| 20260507025546 | 58 | 237 | 0.0 | 2.0 | 0.02 | 0.02 | 0.02 | 92 | 1010.2 |
| 20260507025046 | 58 | 214 | 0.0 | 2.0 | 0.02 | 0.02 | 0.02 | 92 | 1010.6 |
| 20260507024555 | 58 | 228 | 0.0 | 3.0 | 0.02 | 0.02 | 0.02 | 91 | 1010.3 |
| 20260507024046 | 58 | 227 | 0.0 | 3.0 | 0.02 | 0.02 | 0.02 | 91 | 1010.4 |
| 20260507023548 | 59 | 138 | 0.0 | 5.0 | 0.02 | 0.02 | 0.02 | 91 | 1010.1 |
| 20260507023049 | 59 | 94 | 2.0 | 6.0 | 0.02 | 0.02 | 0.02 | 89 | 1010.5 |
| 20260507022546 | 59 | 328 | 1.0 | 8.0 | 0.01 | 0.01 | 0.01 | 89 | 1011.8 |
| 20260507022045 | 59 | 247 | 2.0 | 8.0 | 0.01 | 0.01 | 0.01 | 89 | 1011.8 |
| 20260507021645 | 59 | 201 | 0.0 | 8.0 | 0.01 | 0.01 | 0.01 | 89 | 1011.7 |
| 20260507021044 | 59 | 207 | 2.0 | 10.0 | 0.01 | 0.01 | 0.01 | 88 | 1011.6 |
| 20260507020545 | 60 | 267 | 4.0 | 14.0 | 0.01 | 0.01 | 0.01 | 88 | 1011.6 |
| 20260507020104 | 60 | 250 | 3.0 | 14.0 | 0.00 | 0.00 | 0.00 | 87 | 1011.7 |
| 20260507015543 | 60 | 200 | 1.0 | 14.0 | 0.00 | 0.00 | 0.00 | 87 | 1011.8 |
| 20260507015043 | 60 | 305 | 5.0 | 14.0 | 0.00 | 0.00 | 0.00 | 86 | 1011.7 |
| 20260507014546 | 60 | 208 | 1.0 | 8.0 | 0.00 | 0.00 | 0.00 | 86 | 1011.6 |
| 20260507014042 | 60 | 202 | 3.0 | 10.0 | 0.00 | 0.00 | 0.00 | 86 | 1011.4 |
| 20260507013541 | 61 | 110 | 3.0 | 10.0 | 0.00 | 0.00 | 0.00 | 85 | 1011.0 |
| 20260507013051 | 61 | 170 | 2.0 | 10.0 | 0.00 | 0.00 | 0.00 | 85 | 1011.0 |
| 20260507012541 | 61 | 235 | 4.0 | 12.0 | 0.00 | 0.00 | 0.00 | 84 | 1010.9 |
| 20260507012041 | 61 | 248 | 4.0 | 9.0 | 0.00 | 0.00 | 0.00 | 84 | 1010.9 |
| 20260507011541 | 61 | 291 | 1.0 | 9.0 | 0.00 | 0.00 | 0.00 | 84 | 1010.7 |
| 20260507011042 | 61 | 261 | 2.0 | 9.0 | 0.00 | 0.00 | 0.00 | 85 | 1011.0 |
| 20260507010541 | 61 | 269 | 1.0 | 7.0 | 0.00 | 0.00 | 0.00 | 85 | 1011.0 |
| 20260507010045 | 61 | 330 | 1.0 | 7.0 | 0.00 | 0.00 | 0.00 | 86 | 1010.9 |
| 20260507005541 | 61 | 266 | 3.0 | 11.0 | 0.00 | 0.00 | 0.00 | 86 | 1010.7 |
| 20260507005043 | 61 | 217 | 4.0 | 11.0 | 0.00 | 0.00 | 0.00 | 85 | 1010.6 |
| 20260507004551 | 61 | 269 | 2.0 | 11.0 | 0.00 | 0.00 | 0.00 | 85 | 1010.5 |
| 20260507004041 | 61 | 224 | 5.0 | 11.0 | 0.00 | 0.00 | 0.00 | 85 | 1010.7 |
| 20260507003539 | 61 | 262 | 6.0 | 11.0 | 0.00 | 0.00 | 0.00 | 85 | 1010.8 |
| 20260507003044 | 62 | 173 | 3.0 | 11.0 | 0.00 | 0.00 | 0.00 | 85 | 1010.7 |
| 20260507002539 | 62 | 219 | 2.0 | 10.0 | 0.00 | 0.00 | 0.00 | 84 | 1010.7 |
| 20260507002039 | 62 | 250 | 4.0 | 10.0 | 0.00 | 0.00 | 0.00 | 84 | 1010.7 |
| 20260507001545 | 62 | 258 | 1.0 | 5.0 | 0.00 | 0.00 | 0.00 | 85 | 1010.4 |
| 20260507001038 | 62 | 130 | 1.0 | 5.0 | 0.00 | 0.00 | 0.00 | 86 | 1010.4 |
| 20260507000541 | 62 | 201 | 3.0 | 9.0 | 0.00 | 0.00 | 0.00 | 87 | 1010.5 |
| 20260507000038 | 62 | 215 | 2.0 | 9.0 | 0.00 | 0.00 | 0.00 | 87 | 1010.6 |
| 20260506235538 | 61 | 174 | 1.0 | 4.0 | 0.00 | 0.00 | 0.00 | 89 | 1010.5 |
| 20260506235038 | 61 | 175 | 1.0 | 4.0 | 0.00 | 0.00 | 0.00 | 89 | 1010.4 |
| 20260506234543 | 61 | 222 | 1.0 | 3.0 | 0.00 | 0.00 | 0.00 | 90 | 1010.6 |
| 20260506234037 | 61 | 134 | 0.0 | 7.0 | 0.00 | 0.00 | 0.00 | 90 | 1010.5 |
| 20260506233537 | 61 | 129 | 2.0 | 7.0 | 0.00 | 0.00 | 0.00 | 90 | 1010.3 |
| 20260506233039 | 62 | 102 | 2.0 | 5.0 | 0.00 | 0.00 | 0.00 | 90 | 1010.1 |
| 20260506232536 | 62 | 214 | 1.0 | 3.0 | 0.00 | 0.00 | 0.00 | 90 | 1010.1 |
| 20260506232036 | 62 | 140 | 0.0 | 3.0 | 0.00 | 0.00 | 0.00 | 90 | 1009.9 |
| 20260506231536 | 62 | 117 | 1.0 | 5.0 | 0.00 | 0.00 | 0.00 | 90 | 1010.0 |
| 20260506231037 | 62 | 147 | 2.0 | 5.0 | 0.00 | 0.00 | 0.00 | 90 | 1010.1 |
| 20260506230536 | 62 | 153 | 2.0 | 7.0 | 0.00 | 0.00 | 0.00 | 89 | 1010.1 |
| 20260506230045 | 62 | 174 | 1.0 | 7.0 | 0.00 | 0.00 | 0.00 | 89 | 1010.2 |
| 20260506225535 | 62 | 167 | 3.0 | 7.0 | 0.00 | 0.00 | 0.00 | 88 | 1010.2 |
| 20260506225035 | 62 | 144 | 1.0 | 8.0 | 0.00 | 0.00 | 0.00 | 88 | 1010.1 |
| 20260506224535 | 63 | 115 | 3.0 | 8.0 | 0.00 | 0.00 | 0.00 | 88 | 1009.9 |
| 20260506224036 | 63 | 205 | 1.0 | 3.0 | 0.00 | 0.00 | 0.00 | 88 | 1010.0 |
| 20260506223534 | 62 | 140 | 0.0 | 3.0 | 0.00 | 0.00 | 0.00 | 88 | 1009.8 |
| 20260506223041 | 63 | 150 | 1.0 | 6.0 | 0.00 | 0.00 | 0.00 | 88 | 1010.0 |
| 20260506222534 | 63 | 124 | 1.0 | 6.0 | 0.00 | 0.00 | 0.00 | 87 | 1010.2 |
| 20260506222034 | 63 | 165 | 2.0 | 5.0 | 0.00 | 0.00 | 0.00 | 87 | 1010.4 |
| 20260506221533 | 63 | 185 | 2.0 | 6.0 | 0.00 | 0.00 | 0.00 | 86 | 1010.3 |
| 20260506221033 | 63 | 127 | 1.0 | 6.0 | 0.00 | 0.00 | 0.00 | 86 | 1010.5 |
| 20260506220533 | 63 | 138 | 2.0 | 6.0 | 0.00 | 0.00 | 0.00 | 86 | 1010.5 |
| 20260506220033 | 64 | 184 | 3.0 | 5.0 | 0.00 | 0.00 | 0.00 | 85 | 1010.7 |
| 20260506215534 | 64 | 158 | 1.0 | 4.0 | 0.00 | 0.00 | 0.00 | 85 | 1010.7 |
| 20260506215036 | 64 | 243 | 2.0 | 11.0 | 0.00 | 0.00 | 0.00 | 84 | 1010.7 |
| 20260506214540 | 64 | 181 | 5.0 | 11.0 | 0.00 | 0.00 | 0.00 | 84 | 1010.8 |
| 20260506214032 | 64 | 135 | 4.0 | 9.0 | 0.00 | 0.00 | 0.00 | 84 | 1010.6 |
| 20260506213532 | 65 | 157 | 2.0 | 6.0 | 0.00 | 0.00 | 0.00 | 84 | 1010.6 |
| 20260506213033 | 65 | 134 | 2.0 | 9.0 | 0.00 | 0.00 | 0.00 | 83 | 1010.4 |
| 20260506212531 | 65 | 172 | 3.0 | 9.0 | 0.00 | 0.00 | 0.00 | 83 | 1010.4 |
| 20260506212031 | 65 | 161 | 3.0 | 9.0 | 0.00 | 0.00 | 0.00 | 82 | 1010.3 |
| 20260506211530 | 66 | 186 | 3.0 | 9.0 | 0.00 | 0.00 | 0.00 | 80 | 1010.2 |
| 20260506211031 | 66 | 138 | 1.0 | 8.0 | 0.00 | 0.00 | 0.00 | 80 | 1010.2 |
| 20260506210531 | 66 | 155 | 2.0 | 6.0 | 0.00 | 0.00 | 0.00 | 80 | 1010.1 |
| 20260506210030 | 66 | 139 | 2.0 | 5.0 | 0.00 | 0.00 | 0.00 | 81 | 1010.1 |
| 20260506205530 | 65 | 153 | 1.0 | 5.0 | 0.00 | 0.00 | 0.00 | 81 | 1009.9 |
| 20260506205030 | 65 | 151 | 1.0 | 7.0 | 0.00 | 0.00 | 0.00 | 81 | 1009.8 |
| 20260506204530 | 65 | 155 | 1.0 | 8.0 | 0.00 | 0.00 | 0.00 | 82 | 1009.8 |
| 20260506204029 | 65 | 207 | 3.0 | 8.0 | 0.00 | 0.00 | 0.00 | 81 | 1009.7 |
| 20260506203528 | 65 | 164 | 3.0 | 7.0 | 0.00 | 0.00 | 0.00 | 80 | 1009.8 |
| 20260506203032 | 66 | 77 | 3.0 | 7.0 | 0.00 | 0.00 | 0.00 | 79 | 1009.6 |
| 20260506202527 | 66 | 220 | 3.0 | 9.0 | 0.00 | 0.00 | 0.00 | 79 | 1009.8 |
| 20260506202027 | 66 | 62 | 5.0 | 13.0 | 0.00 | 0.00 | 0.00 | 78 | 1009.9 |
| 20260506201527 | 67 | 195 | 5.0 | 10.0 | 0.00 | 0.00 | 0.00 | 77 | 1010.0 |
| 20260506201026 | 68 | 141 | 5.0 | 10.0 | 0.00 | 0.00 | 0.00 | 75 | 1009.9 |
| 20260506200525 | 69 | 203 | 4.0 | 8.0 | 0.00 | 0.00 | 0.00 | 73 | 1010.1 |
| 20260506200025 | 69 | 160 | 3.0 | 11.0 | 0.00 | 0.00 | 0.00 | 71 | 1010.1 |
| 20260506195525 | 70 | 151 | 4.0 | 11.0 | 0.00 | 0.00 | 0.00 | 69 | 1010.2 |
| 20260506195025 | 70 | 189 | 7.0 | 13.0 | 0.00 | 0.00 | 0.00 | 64 | 1010.2 |
| 20260506194524 | 70 | 225 | 3.0 | 13.0 | 0.00 | 0.00 | 0.00 | 66 | 1010.2 |
| 20260506194021 | 69 | 178 | 2.0 | 7.0 | 0.00 | 0.00 | 0.00 | 70 | 1010.5 |
| 20260506193522 | 68 | 200 | 3.0 | 10.0 | 0.00 | 0.00 | 0.00 | 73 | 1010.5 |
| 20260506193021 | 69 | 146 | 3.0 | 10.0 | 0.00 | 0.00 | 0.00 | 71 | 1010.3 |
| 20260506192521 | 69 | 131 | 1.0 | 8.0 | 0.00 | 0.00 | 0.00 | 73 | 1010.1 |
| 20260506192020 | 68 | 142 | 2.0 | 7.0 | 0.00 | 0.00 | 0.00 | 74 | 1009.8 |
| 20260506191520 | 68 | 151 | 3.0 | 12.0 | 0.00 | 0.00 | 0.00 | 73 | 1010.0 |
| 20260506191020 | 68 | 150 | 3.0 | 12.0 | 0.00 | 0.00 | 0.00 | 73 | 1010.1 |
| 20260506190520 | 69 | 176 | 2.0 | 9.0 | 0.00 | 0.00 | 0.00 | 73 | 1010.0 |
| 20260506190020 | 68 | 193 | 2.0 | 8.0 | 0.00 | 0.00 | 0.00 | 73 | 1009.9 |
| 20260506185521 | 68 | 135 | 3.0 | 8.0 | 0.00 | 0.00 | 0.00 | 71 | 1010.0 |
| 20260506185022 | 69 | 166 | 3.0 | 8.0 | 0.00 | 0.00 | 0.00 | 70 | 1010.1 |
| 20260506184536 | 69 | 162 | 3.0 | 5.0 | 0.00 | 0.00 | 0.00 | 72 | 1010.0 |
| 20260506184017 | 68 | 146 | 3.0 | 5.0 | 0.00 | 0.00 | 0.00 | 74 | 1010.0 |
| 20260506183514 | 67 | 187 | 3.0 | 5.0 | 0.00 | 0.00 | 0.00 | 73 | 1010.0 |
| 20260506183021 | 66 | 163 | 2.0 | 4.0 | 0.00 | 0.00 | 0.00 | 76 | 1010.0 |
| 20260506182512 | 65 | 188 | 2.0 | 7.0 | 0.00 | 0.00 | 0.00 | 78 | 1009.9 |
| 20260506182014 | 65 | 138 | 2.0 | 7.0 | 0.00 | 0.00 | 0.00 | 79 | 1009.9 |
| 20260506181515 | 64 | 150 | 2.0 | 4.0 | 0.00 | 0.00 | 0.00 | 79 | 1010.0 |
| 20260506181017 | 64 | 145 | 1.0 | 6.0 | 0.00 | 0.00 | 0.00 | 79 | 1009.9 |
| 20260506180513 | 64 | 163 | 2.0 | 6.0 | 0.00 | 0.00 | 0.00 | 79 | 1010.1 |
| 20260506180012 | 64 | 138 | 2.0 | 9.0 | 0.00 | 0.00 | 0.00 | 77 | 1010.1 |
| 20260506175513 | 65 | 102 | 3.0 | 9.0 | 0.00 | 0.00 | 0.00 | 75 | 1010.0 |
| 20260506175011 | 66 | 140 | 2.0 | 11.0 | 0.00 | 0.00 | 0.00 | 72 | 1010.2 |
| 20260506174511 | 66 | 226 | 3.0 | 12.0 | 0.00 | 0.00 | 0.00 | 72 | 1010.2 |
| 20260506174010 | 66 | 230 | 2.0 | 12.0 | 0.00 | 0.00 | 0.00 | 72 | 1010.4 |
| 20260506173510 | 66 | 220 | 4.0 | 11.0 | 0.00 | 0.00 | 0.00 | 72 | 1010.6 |
| 20260506173009 | 65 | 232 | 3.0 | 11.0 | 0.00 | 0.00 | 0.00 | 73 | 1010.3 |
| 20260506172509 | 65 | 167 | 2.0 | 12.0 | 0.00 | 0.00 | 0.00 | 75 | 1010.4 |
| 20260506172009 | 64 | 191 | 4.0 | 10.0 | 0.00 | 0.00 | 0.00 | 74 | 1010.5 |
| 20260506171509 | 64 | 258 | 4.0 | 8.0 | 0.00 | 0.00 | 0.00 | 76 | 1011.0 |
| 20260506171011 | 64 | 130 | 1.0 | 10.0 | 0.00 | 0.00 | 0.00 | 78 | 1011.4 |
| 20260506170508 | 63 | 230 | 1.0 | 12.0 | 0.00 | 0.00 | 0.00 | 78 | 1011.8 |
| 20260506170009 | 63 | 226 | 5.0 | 12.0 | 0.00 | 0.00 | 0.00 | 78 | 1011.9 |
| 20260506165508 | 63 | 222 | 3.0 | 8.0 | 0.00 | 0.00 | 0.00 | 77 | 1011.8 |
| 20260506165008 | 64 | 331 | 1.0 | 13.0 | 0.00 | 0.00 | 0.00 | 77 | 1011.8 |
| 20260506164509 | 64 | 259 | 2.0 | 13.0 | 0.00 | 0.00 | 0.00 | 76 | 1012.1 |
| 20260506164008 | 64 | 156 | 3.0 | 14.0 | 0.00 | 0.00 | 0.00 | 75 | 1012.2 |
| 20260506163506 | 65 | 257 | 5.0 | 14.0 | 0.00 | 0.00 | 0.00 | 71 | 1012.1 |
| 20260506163008 | 66 | 175 | 1.0 | 14.0 | 0.00 | 0.00 | 0.00 | 70 | 1012.2 |
| 20260506162507 | 66 | 219 | 3.0 | 17.0 | 0.00 | 0.00 | 0.00 | 69 | 1012.3 |
| 20260506162006 | 65 | 207 | 5.0 | 17.0 | 0.00 | 0.00 | 0.00 | 69 | 1012.4 |
| 20260506161505 | 65 | 248 | 3.0 | 16.0 | 0.00 | 0.00 | 0.00 | 70 | 1012.4 |
| 20260506161003 | 65 | 262 | 4.0 | 14.0 | 0.00 | 0.00 | 0.00 | 70 | 1012.3 |
| 20260506160502 | 64 | 225 | 2.0 | 14.0 | 0.00 | 0.00 | 0.00 | 74 | 1012.2 |
| 20260506160109 | 63 | 186 | 4.0 | 13.0 | 0.00 | 0.00 | 0.00 | 75 | 1012.2 |
| 20260506155602 | 62 | 217 | 3.0 | 7.0 | 0.00 | 0.00 | 0.00 | 78 | 1012.1 |
| 20260506155100 | 62 | 167 | 2.0 | 7.0 | 0.00 | 0.00 | 0.00 | 77 | 1012.0 |
| 20260506154604 | 62 | 163 | 2.0 | 9.0 | 0.00 | 0.00 | 0.00 | 77 | 1011.9 |
| 20260506154100 | 62 | 128 | 3.0 | 9.0 | 0.00 | 0.00 | 0.00 | 77 | 1011.7 |
| 20260506153559 | 62 | 176 | 1.0 | 9.0 | 0.00 | 0.00 | 0.00 | 77 | 1011.7 |
| 20260506153113 | 62 | 154 | 4.0 | 10.0 | 0.00 | 0.00 | 0.00 | 76 | 1011.6 |
| 20260506152559 | 63 | 120 | 4.0 | 10.0 | 0.00 | 0.00 | 0.00 | 77 | 1011.5 |
| 20260506152057 | 62 | 181 | 2.0 | 5.0 | 0.00 | 0.00 | 0.00 | 77 | 1011.4 |
| 20260506151557 | 62 | 157 | 1.0 | 3.0 | 0.00 | 0.00 | 0.00 | 78 | 1011.3 |
| 20260506151100 | 61 | 198 | 0.0 | 6.0 | 0.00 | 0.00 | 0.00 | 80 | 1011.2 |
| 20260506150556 | 60 | 203 | 2.0 | 7.0 | 0.00 | 0.00 | 0.00 | 80 | 1011.3 |
| 20260506145556 | 61 | 132 | 4.0 | 9.0 | 0.00 | 0.00 | 0.00 | 79 | 1011.0 |
| 20260506145055 | 61 | 148 | 1.0 | 4.0 | 0.00 | 0.00 | 0.00 | 79 | 1010.8 |
| 20260506144557 | 61 | 139 | 1.0 | 4.0 | 0.00 | 0.00 | 0.00 | 79 | 1010.7 |
| 20260506144054 | 61 | 172 | 1.0 | 8.0 | 0.00 | 0.00 | 0.00 | 78 | 1010.8 |
| 20260506143554 | 62 | 165 | 3.0 | 8.0 | 0.00 | 0.00 | 0.00 | 76 | 1011.0 |
| 20260506143053 | 62 | 198 | 4.0 | 8.0 | 0.00 | 0.00 | 0.00 | 77 | 1011.1 |
| 20260506142552 | 61 | 145 | 1.0 | 6.0 | 0.00 | 0.00 | 0.00 | 78 | 1011.1 |
| 20260506142050 | 60 | 201 | 0.0 | 4.0 | 0.00 | 0.00 | 0.00 | 79 | 1011.2 |
| 20260506141551 | 60 | 169 | 0.0 | 2.0 | 0.00 | 0.00 | 0.00 | 79 | 1011.1 |
| 20260506141050 | 60 | 138 | 0.0 | 3.0 | 0.00 | 0.00 | 0.00 | 80 | 1010.9 |
| 20260506140552 | 60 | 128 | 1.0 | 4.0 | 0.00 | 0.00 | 0.00 | 79 | 1010.9 |
| 20260506140050 | 60 | 167 | 0.0 | 5.0 | 0.00 | 0.00 | 0.00 | 79 | 1011.0 |
| 20260506135550 | 60 | 141 | 2.0 | 5.0 | 0.00 | 0.00 | 0.00 | 79 | 1010.9 |
| 20260506135049 | 60 | 146 | 0.0 | 4.0 | 0.00 | 0.00 | 0.00 | 80 | 1010.9 |
| 20260506134549 | 60 | 124 | 2.0 | 4.0 | 0.00 | 0.00 | 0.00 | 78 | 1010.9 |
| 20260506134050 | 60 | 152 | 0.0 | 2.0 | 0.00 | 0.00 | 0.00 | 79 | 1011.0 |
| 20260506133549 | 60 | 170 | 0.0 | 6.0 | 0.00 | 0.00 | 0.00 | 79 | 1011.1 |
| 20260506133148 | 59 | 159 | 1.0 | 6.0 | 0.00 | 0.00 | 0.00 | 80 | 1011.1 |
| 20260506132549 | 59 | 163 | 0.0 | 5.0 | 0.00 | 0.00 | 0.00 | 80 | 1011.1 |
| 20260506132049 | 59 | 215 | 2.0 | 4.0 | 0.00 | 0.00 | 0.00 | 80 | 1010.9 |
| 20260506131553 | 59 | 141 | 1.0 | 4.0 | 0.00 | 0.00 | 0.00 | 79 | 1011.0 |
| 20260506131047 | 59 | 147 | 1.0 | 7.0 | 0.00 | 0.00 | 0.00 | 79 | 1011.0 |
| 20260506130547 | 59 | 148 | 2.0 | 7.0 | 0.00 | 0.00 | 0.00 | 79 | 1010.8 |
| 20260506130047 | 59 | 139 | 1.0 | 5.0 | 0.00 | 0.00 | 0.00 | 79 | 1011.0 |
| 20260506125548 | 59 | 202 | 2.0 | 5.0 | 0.00 | 0.00 | 0.00 | 79 | 1011.0 |
| 20260506125046 | 59 | 153 | 2.0 | 5.0 | 0.00 | 0.00 | 0.00 | 79 | 1010.7 |
| 20260506124545 | 58 | 216 | 1.0 | 8.0 | 0.00 | 0.00 | 0.00 | 80 | 1010.9 |
| 20260506124045 | 58 | 148 | 3.0 | 9.0 | 0.00 | 0.00 | 0.00 | 80 | 1010.9 |
| 20260506123545 | 58 | 137 | 3.0 | 9.0 | 0.00 | 0.00 | 0.00 | 81 | 1011.0 |
| 20260506123045 | 57 | 146 | 3.0 | 9.0 | 0.00 | 0.00 | 0.00 | 81 | 1010.8 |
| 20260506122544 | 57 | 114 | 2.0 | 6.0 | 0.00 | 0.00 | 0.00 | 82 | 1010.8 |
| 20260506122045 | 57 | 102 | 2.0 | 11.0 | 0.00 | 0.00 | 0.00 | 82 | 1010.9 |
| 20260506121545 | 56 | 214 | 4.0 | 11.0 | 0.00 | 0.00 | 0.00 | 82 | 1010.9 |
| 20260506121044 | 56 | 156 | 3.0 | 10.0 | 0.00 | 0.00 | 0.00 | 83 | 1010.8 |
| 20260506120544 | 56 | 148 | 3.0 | 10.0 | 0.00 | 0.00 | 0.00 | 83 | 1010.8 |
| 20260506120043 | 56 | 179 | 2.0 | 9.0 | 0.00 | 0.00 | 0.00 | 83 | 1011.0 |
| 20260506115543 | 56 | 194 | 4.0 | 10.0 | 0.00 | 0.00 | 0.00 | 83 | 1011.1 |
| 20260506115042 | 56 | 179 | 5.0 | 13.0 | 0.00 | 0.00 | 0.00 | 83 | 1011.0 |
| 20260506114544 | 56 | 199 | 6.0 | 13.0 | 0.00 | 0.00 | 0.00 | 82 | 1011.1 |
| 20260506114042 | 57 | 130 | 4.0 | 9.0 | 0.00 | 0.00 | 0.00 | 81 | 1010.9 |
| 20260506113541 | 57 | 192 | 3.0 | 10.0 | 0.00 | 0.00 | 0.00 | 81 | 1011.1 |
| 20260506113043 | 57 | 134 | 3.0 | 13.0 | 0.00 | 0.00 | 0.00 | 80 | 1010.7 |
| 20260506112541 | 57 | 226 | 5.0 | 18.0 | 0.00 | 0.00 | 0.00 | 80 | 1010.8 |
| 20260506112042 | 57 | 181 | 5.0 | 14.0 | 0.00 | 0.00 | 0.00 | 80 | 1010.9 |
| 20260506111540 | 56 | 165 | 3.0 | 13.0 | 0.00 | 0.00 | 0.00 | 81 | 1010.9 |
| 20260506111040 | 56 | 274 | 4.0 | 15.0 | 0.00 | 0.00 | 0.00 | 81 | 1010.6 |
| 20260506110543 | 56 | 224 | 4.0 | 15.0 | 0.00 | 0.00 | 0.00 | 81 | 1010.7 |
| 20260506110040 | 55 | 161 | 2.0 | 9.0 | 0.00 | 0.00 | 0.00 | 83 | 1010.7 |
| 20260506105542 | 56 | 205 | 2.0 | 11.0 | 0.00 | 0.00 | 0.00 | 83 | 1010.5 |
| 20260506105042 | 55 | 213 | 3.0 | 7.0 | 0.00 | 0.00 | 0.00 | 84 | 1010.4 |
| 20260506104539 | 55 | 139 | 2.0 | 7.0 | 0.00 | 0.00 | 0.00 | 84 | 1010.6 |
| 20260506104038 | 55 | 131 | 2.0 | 13.0 | 0.00 | 0.00 | 0.00 | 85 | 1010.4 |
| 20260506103538 | 55 | 173 | 3.0 | 13.0 | 0.00 | 0.00 | 0.00 | 85 | 1010.5 |
| 20260506103048 | 54 | 127 | 1.0 | 6.0 | 0.00 | 0.00 | 0.00 | 86 | 1010.6 |
| 20260506102538 | 54 | 163 | 2.0 | 7.0 | 0.00 | 0.00 | 0.00 | 86 | 1010.5 |
| 20260506102038 | 54 | 191 | 2.0 | 7.0 | 0.00 | 0.00 | 0.00 | 86 | 1010.4 |
| 20260506101538 | 54 | 180 | 3.0 | 6.0 | 0.00 | 0.00 | 0.00 | 87 | 1010.3 |
| 20260506101037 | 54 | 158 | 2.0 | 6.0 | 0.00 | 0.00 | 0.00 | 87 | 1010.4 |
| 20260506100539 | 54 | 127 | 2.0 | 14.0 | 0.00 | 0.00 | 0.00 | 86 | 1010.4 |
| 20260506100039 | 54 | 167 | 6.0 | 14.0 | 0.00 | 0.00 | 0.00 | 86 | 1010.3 |
| 20260506095538 | 54 | 150 | 2.0 | 18.0 | 0.00 | 0.00 | 0.00 | 86 | 1010.2 |
| 20260506095037 | 54 | 135 | 7.0 | 18.0 | 0.00 | 0.00 | 0.00 | 87 | 1010.1 |
| 20260506094538 | 54 | 193 | 4.0 | 13.0 | 0.00 | 0.00 | 0.00 | 87 | 1010.0 |
| 20260506094038 | 54 | 104 | 5.0 | 9.0 | 0.00 | 0.00 | 0.00 | 87 | 1010.2 |
| 20260506093634 | 54 | 203 | 2.0 | 15.0 | 0.00 | 0.00 | 0.00 | 87 | 1010.5 |
| 20260506093033 | 55 | 211 | 4.0 | 17.0 | 0.00 | 0.00 | 0.00 | 87 | 1010.5 |
| 20260506092536 | 55 | 177 | 5.0 | 17.0 | 0.00 | 0.00 | 0.00 | 86 | 1010.4 |
| 20260506092033 | 55 | 193 | 4.0 | 15.0 | 0.00 | 0.00 | 0.00 | 86 | 1010.6 |
| 20260506091534 | 55 | 180 | 2.0 | 15.0 | 0.00 | 0.00 | 0.00 | 86 | 1010.6 |
| 20260506091032 | 55 | 141 | 6.0 | 15.0 | 0.00 | 0.00 | 0.00 | 85 | 1010.6 |
| 20260506090529 | 55 | 224 | 2.0 | 16.0 | 0.00 | 0.00 | 0.00 | 84 | 1010.4 |
| 20260506090032 | 55 | 167 | 4.0 | 18.0 | 0.00 | 0.00 | 0.00 | 84 | 1010.1 |
| 20260506085528 | 56 | 158 | 5.0 | 11.0 | 0.00 | 0.00 | 0.00 | 83 | 1010.1 |
| 20260506085025 | 56 | 254 | 3.0 | 13.0 | 0.00 | 0.00 | 0.00 | 82 | 1010.4 |
| 20260506084525 | 56 | 260 | 5.0 | 13.0 | 0.00 | 0.00 | 0.00 | 81 | 1010.5 |
| 20260506084024 | 56 | 218 | 6.0 | 14.0 | 0.00 | 0.00 | 0.00 | 80 | 1010.6 |
| 20260506083523 | 56 | 181 | 6.0 | 15.0 | 0.00 | 0.00 | 0.00 | 80 | 1010.5 |
| 20260506083021 | 56 | 191 | 4.0 | 14.0 | 0.00 | 0.00 | 0.00 | 79 | 1010.8 |
| 20260506082521 | 56 | 353 | 3.0 | 13.0 | 0.00 | 0.00 | 0.00 | 79 | 1010.7 |
| 20260506082021 | 56 | 165 | 2.0 | 7.0 | 0.00 | 0.00 | 0.00 | 78 | 1010.9 |
| 20260506081521 | 56 | 217 | 1.0 | 9.0 | 0.00 | 0.00 | 0.00 | 78 | 1011.0 |
| 20260506081021 | 56 | 235 | 3.0 | 9.0 | 0.00 | 0.00 | 0.00 | 78 | 1010.9 |
| 20260506080521 | 56 | 238 | 4.0 | 16.0 | 0.00 | 0.00 | 0.00 | 77 | 1011.0 |
| 20260506073514 | 57 | 175 | 4.0 | 16.0 | 0.00 | 0.00 | 0.00 | 72 | 1010.6 |
| 20260506073013 | 57 | 163 | 3.0 | 14.0 | 0.00 | 0.00 | 0.00 | 71 | 1010.7 |
| 20260506072512 | 57 | 179 | 4.0 | 13.0 | 0.00 | 0.00 | 0.00 | 71 | 1010.9 |
| 20260506072012 | 57 | 210 | 2.0 | 8.0 | 0.00 | 0.00 | 0.00 | 70 | 1010.9 |
| 20260506071511 | 57 | 140 | 2.0 | 8.0 | 0.00 | 0.00 | 0.00 | 70 | 1010.9 |
| 20260506071011 | 57 | 169 | 3.0 | 10.0 | 0.00 | 0.00 | 0.00 | 70 | 1011.1 |
| 20260506070513 | 57 | 167 | 4.0 | 9.0 | 0.00 | 0.00 | 0.00 | 70 | 1011.3 |